[[[{"header":{"parameterUnit":"kt","parameterCategory":2,"dx":1,"dy":1,"la1":30.253999710083008,"la2":30.299108505249023,"lo1":-89.0895004272461,"lo2":-89.04439544677734,"nx":28,"ny":28,"refTime":"2022-10-20T21:00:00:Z","depth":0,"parameterNumber":1,"parameterNumberName":"U-component_of_WINDS"},"data":[-3.7993,-3.8087,-3.8089,-3.8199,-3.8219,-3.8293,-3.8321,-3.8357,-3.8385,-3.8476,-3.8528,-3.8539,-3.8568,-3.8632,-3.8688,-3.8692,-3.8715,-3.875,-3.8748,-3.8592,-3.8571,-3.855,-3.8526,-3.8756,-3.8756,-3.8907,-3.8908,-3.891,-3.7886,-3.7907,-3.7965,-3.8021,-3.8071,-3.804,-3.8082,-3.8126,-3.8193,-3.8229,-3.8279,-3.8359,-3.8421,-3.8438,-3.8498,-3.8544,-3.8531,-3.856,-3.8555,-3.856,-3.8395,-3.837,-3.8569,-3.8569,-3.8569,-3.8569,-3.8569,-3.8569,-3.7692,-3.7749,-3.7782,-3.7844,-3.7873,-3.7911,-3.7964,-3.7975,-3.8031,-3.8092,-3.8082,-3.8158,-3.8193,-3.8263,-3.8287,-3.8347,-3.8314,-3.8345,-3.8352,-3.836,-3.8369,-3.8151,-3.8357,-3.8357,-3.8356,-3.8356,-3.8355,0,-3.7549,-3.7546,-3.7599,-3.7655,-3.7699,-3.7741,-3.7779,-3.7813,-3.7803,-3.785,-3.7917,-3.7955,-3.8032,-3.8095,-3.815,-3.8167,-3.8135,-3.8132,-3.8153,-3.8158,-3.8158,-3.8158,-3.7889,-3.8124,-3.8122,-3.8121,-3.812,-3.8119,-3.7352,-3.7417,-3.745,-3.7488,-3.7508,-3.7569,-3.7605,-3.7591,-3.763,-3.7675,-3.7725,-3.7788,-3.7836,-3.7944,-3.7952,-3.8009,-3.7993,-3.8084,-3.8001,-3.8006,-3.7993,-3.7989,-3.7995,-3.8098,-3.8101,-3.8103,-3.8105,0,-3.7241,-3.7238,-3.7338,-3.7363,-3.7371,-3.744,-3.7462,-3.7517,-3.7519,-3.7595,-3.7612,-3.7615,-3.768,-3.7674,-3.7746,-3.7741,-3.7857,-3.7842,-3.7846,-3.7842,-3.7922,-3.7914,-3.8182,-3.8216,-3.798,-3.7983,-3.7985,0,-3.707,-3.7155,-3.7146,-3.7203,-3.7298,-3.7279,-3.7374,-3.7384,-3.741,-3.747,-3.7433,-3.749,-3.7471,-3.7528,-3.752,-3.7613,-3.7627,-3.7627,-3.7624,-3.7629,-3.7629,-3.7647,-3.7635,-3.7613,-3.7612,-3.7611,-3.761,0,-3.6894,-3.6988,-3.7082,-3.7102,-3.7134,-3.7179,-3.7195,-3.7223,-3.7257,-3.7301,-3.7323,-3.7376,-3.7404,-3.7447,-3.7434,-3.7379,-3.7549,-3.7469,-3.7549,-3.755,-3.7583,-3.7581,-3.7823,-3.7608,-3.7607,-3.7607,-3.7607,0,-3.6753,-3.6797,-3.6933,-3.6959,-3.6984,-3.7045,-3.7095,-3.7145,-3.7177,-3.7175,-3.7209,-3.7181,-3.7261,-3.7184,-3.7294,-3.7225,-3.7256,-3.7264,-3.7269,-3.7273,-3.7185,-3.732,-3.7554,-3.7577,-3.7282,-3.7279,-3.7277,0,-3.6553,-3.6688,-3.667,-3.68,-3.686,-3.6812,-3.6881,-3.6908,-3.6911,-3.6963,-3.6965,-3.7024,-3.6965,-3.6981,-3.7038,-3.7041,-3.7132,-3.703,-3.7105,-3.7108,-3.7097,-3.7312,-3.7347,-3.7504,-3.7242,-3.7246,-3.7248,0,-3.6395,-3.6431,-3.6455,-3.6476,-3.6508,-3.6557,-3.6636,-3.6689,-3.6725,-3.6759,-3.6824,-3.6907,-3.6865,-3.6892,-3.6873,-3.6932,-3.7071,-3.6878,-3.6878,-3.6912,-3.7223,-3.7257,-3.7283,-3.7045,-3.705,-3.7053,-3.7221,0,-3.6182,-3.6247,-3.6312,-3.6358,-3.6394,-3.6473,-3.6461,-3.6502,-3.648,-3.6478,-3.6573,-3.659,-3.6643,-3.667,-3.6647,-3.6784,-3.6759,-3.6713,-3.6632,-3.6774,-3.6829,-3.6852,-3.6552,-3.655,-3.6548,-3.6546,0,0,-3.599,-3.6081,-3.6056,-3.6129,-3.6158,-3.6103,-3.6189,-3.6211,-3.6254,-3.6276,-3.6232,-3.635,-3.6365,-3.6481,-3.6524,-3.6545,-3.6568,-3.6517,-3.6707,-3.6725,-3.6742,-3.6801,-3.6825,-3.6543,-3.6542,-3.6541,-3.654,0,-3.5908,-3.5924,-3.6008,-3.603,-3.6059,-3.6052,-3.6073,-3.6092,-3.6094,-3.6185,-3.6136,-3.6192,-3.6284,-3.6306,-3.633,-3.6505,-3.6463,-3.6522,-3.662,-3.6687,-3.6708,-3.6726,-3.6789,-3.6811,-3.6535,-3.6536,-3.6536,0,-3.5749,-3.5763,-3.5801,-3.5862,-3.588,-3.5942,-3.5856,-3.5925,-3.5971,-3.5903,-3.5993,-3.6001,-3.6029,-3.6139,-3.6188,-3.6149,-3.6369,-3.6296,-3.6308,-3.6312,-3.6376,-3.6401,-3.6424,-3.613,-3.6129,-3.6127,0,0,-3.5679,-3.5738,-3.5744,-3.5843,-3.5858,-3.5847,-3.5878,-3.5857,-3.5882,-3.5893,-3.5899,-3.5927,-3.598,-3.6015,-3.6064,-3.6188,-3.6191,-3.6247,-3.6266,-3.6281,-3.6294,-3.6362,-3.6387,-3.6122,-3.6122,-3.6122,0,0,-3.5645,-3.5656,-3.5628,-3.5739,-3.5766,-3.5778,-3.5839,-3.5804,-3.5846,-3.5834,-3.5801,-3.5807,-3.5909,-3.5917,-3.5851,-3.6035,-3.5957,-3.5972,-3.6025,-3.6049,-3.6068,-3.6062,-3.5762,0,0,0,0,0,-3.5551,-3.5655,-3.5629,-3.5645,-3.572,-3.5793,-3.5802,-3.5777,-3.5722,-3.5772,-3.5772,-3.5725,-3.5875,-3.5816,-3.5833,-3.5905,-3.6056,-3.6068,-3.6079,-3.6177,-3.6202,-3.6223,0,0,0,0,0,0,-3.5557,-3.5578,-3.5626,-3.5642,-3.5659,-3.5789,-3.5691,-3.5687,-3.5716,-3.5706,-3.5727,-3.5726,-3.5705,-3.5805,-3.5821,-3.5891,-3.5757,-3.6061,-3.6071,-3.608,-3.6185,-3.6206,-3.6224,0,0,0,0,0,-3.5562,-3.5578,-3.5704,-3.5641,-3.5655,-3.5647,-3.5687,-3.5683,-3.5705,-3.5704,-3.5701,-3.5683,-3.5708,-3.5719,-3.5814,-3.5884,-3.5746,-3.5752,-3.6067,-3.6075,-3.6082,-3.6195,0,0,0,0,0,0,-3.5566,-3.5575,-3.5706,-3.5709,-3.5598,-3.5639,-3.5644,-3.5679,-3.57,-3.5698,-3.5658,-3.565,-3.5711,-3.5719,-3.5728,-3.5884,-3.5737,-3.5743,-3.5747,-3.6073,-3.6079,-3.6085,0,0,0,0,0,0,-3.5566,-3.5579,-3.5708,-3.5656,-3.5653,-3.5632,-3.5636,-3.5713,-3.5701,-3.5652,-3.5646,-3.5654,-3.5697,-3.572,-3.5726,-3.5847,-3.573,-3.5736,-3.574,-3.5742,-3.6078,-3.6083,0,0,0,0,0,0,-3.5571,-3.5581,-3.5655,-3.5653,-3.565,-3.5686,-3.5699,-3.5776,-3.5657,-3.5652,-3.5645,-3.564,-3.5699,-3.5705,-3.5726,-3.5844,-3.5846,-3.573,-3.5734,-3.5737,-3.5739,0,0,0,0,0,0,0,-3.5575,-3.5511,-3.5686,-3.565,-3.5647,-3.5741,-3.5742,-3.5743,-3.5656,-3.5651,-3.5646,-3.5642,-3.5697,-3.5704,-3.571,-3.5841,0,0,-3.573,-3.5733,0,0,0,0,0,0,0,0,-3.5506,-3.5509,-3.5686,-3.5687,-3.5687,-3.5741,-3.5742,-3.5743,-3.5655,-3.5651,-3.5647,-3.5644,-3.5699,-3.5704,-3.5709,0,0,0,0,0,0,0,0,0,0,0,0,0,0,0,-3.5686,-3.5687,0,-3.5741,-3.5742,-3.5743,-3.5654,-3.5651,-3.5648,-3.5645,-3.5701,-3.5705,-3.5709,0,0,0,0,0,0,0,0,0,0,0,0,0,0,0,0,0,0,0,0,0,0,0,0,0,0,0,0,0,0,0,0,0,0,0,0,0,0,0,0,0,0,0,0,0,0,0,0,0,0,0,0,0,0,0,0,0,0,0,0,0,0,0,0,0,0,0,0,0]}],[{"header":{"parameterUnit":"kt","parameterCategory":2,"dx":1,"dy":1,"la1":30.253999710083008,"la2":30.299108505249023,"lo1":-89.0895004272461,"lo2":-89.04439544677734,"nx":28,"ny":28,"refTime":"2022-10-20T21:00:00:Z","depth":0,"parameterNumber":2,"parameterNumberName":"V-component_of_WINDS"},"data":[3.7731,3.7643,3.7639,3.7534,3.7512,3.7438,3.7409,3.7371,3.7338,3.7245,3.719,3.7172,3.7132,3.7061,3.6998,3.6989,3.6961,3.6936,3.6929,3.7057,3.7073,3.7089,3.7111,3.6931,3.6931,3.6797,3.6796,3.6795,3.7828,3.7806,3.775,3.7692,3.7643,3.7666,3.762,3.7575,3.7507,3.7465,3.741,3.7326,3.7257,3.7224,3.7155,3.7108,3.7112,3.709,3.709,3.7083,3.722,3.7243,3.7088,3.7088,3.7089,3.7089,3.7089,3.7089,3.8002,3.7949,3.7912,3.785,3.7819,3.7778,3.7725,3.7706,3.7648,3.7579,3.7581,3.75,3.7453,3.7364,3.7331,3.7265,3.7286,3.7258,3.7249,3.7241,3.7234,3.7424,3.7253,3.7253,3.7253,3.7254,3.7254,0,3.8126,3.8126,3.8072,3.8016,3.797,3.7924,3.788,3.7847,3.7838,3.7789,3.7717,3.7673,3.7585,3.7512,3.7444,3.7414,3.7424,3.7426,3.7405,3.7401,3.7408,3.74,3.7621,3.7429,3.743,3.7431,3.7432,3.7433,3.8298,3.8238,3.8195,3.8157,3.8132,3.807,3.803,3.8028,3.7985,3.7928,3.7878,3.7808,3.775,3.763,3.76,3.7531,3.7534,3.7462,3.7523,3.7525,3.7529,3.7531,3.7523,3.7448,3.7446,3.7444,3.7443,0,3.8395,3.8386,3.829,3.8252,3.824,3.8175,3.814,3.8084,3.807,3.799,3.7971,3.7946,3.7872,3.7854,3.7764,3.7756,3.764,3.7648,3.7658,3.7657,3.7587,3.7593,3.7371,3.7341,3.7531,3.753,3.7528,0,3.8535,3.8455,3.8446,3.839,3.83,3.83,3.8209,3.8188,3.8149,3.8086,3.81,3.804,3.8027,3.7963,3.7951,3.7854,3.7837,3.7824,3.782,3.782,3.7821,3.779,3.7797,3.782,3.7821,3.7822,3.7823,0,3.8685,3.8586,3.8496,3.8471,3.8419,3.8376,3.8352,3.8308,3.8267,3.8212,3.8185,3.812,3.8082,3.8029,3.8014,3.8057,3.7896,3.7951,3.7881,3.7881,3.7842,3.7844,3.7658,3.7824,3.7825,3.7825,3.7826,0,3.8795,3.8745,3.8617,3.8574,3.8547,3.8487,3.8425,3.8369,3.8321,3.8311,3.8266,3.8271,3.8187,3.8243,3.8125,3.8184,3.8146,3.8126,3.812,3.8107,3.8168,3.806,3.7889,3.7868,3.8101,3.8104,3.8106,0,3.8966,3.8835,3.8834,3.871,3.8647,3.8668,3.86,3.8557,3.8539,3.8479,3.8456,3.8386,3.8424,3.8398,3.8344,3.8314,3.8238,3.8325,3.8229,3.8225,3.8239,3.8082,3.8059,3.793,3.8135,3.8132,3.813,0,3.9097,3.9039,3.9016,3.8987,3.8934,3.8879,3.8802,3.8734,3.8695,3.8645,3.8576,3.8478,3.8501,3.8459,3.8454,3.8397,3.829,3.8429,3.8427,3.8401,3.8149,3.8128,3.8106,3.8298,3.8295,3.8292,3.8153,0,3.9261,3.9194,3.9135,3.9071,3.9027,3.8949,3.8934,3.8889,3.8892,3.8873,3.8772,3.8728,3.8653,3.8625,3.8624,3.8502,3.8518,3.8543,3.859,3.8489,3.8442,3.8424,3.8662,3.8664,3.8665,3.8665,0,0,3.9425,3.9328,3.9329,3.9255,3.9217,3.9239,3.9156,3.9121,3.9048,3.9019,3.9048,3.8901,3.8862,3.874,3.8708,3.8678,3.8652,3.8687,3.8539,3.8525,3.8511,3.8462,3.8443,3.8667,3.8668,3.8668,3.8669,0,3.9481,3.9452,3.9372,3.9338,3.9286,3.9272,3.9253,3.9203,3.9186,3.909,3.9102,3.9039,3.892,3.8878,3.884,3.8704,3.8713,3.8683,3.8616,3.8551,3.8535,3.8521,3.847,3.8452,3.8671,3.8671,3.8671,0,3.9604,3.9572,3.9532,3.9451,3.9416,3.9349,3.9399,3.9325,3.9274,3.9292,3.9194,3.9166,3.9107,3.8995,3.8944,3.8966,3.877,3.8829,3.8821,3.8813,3.8748,3.873,3.8713,3.893,3.8931,3.8931,0,0,3.9654,3.9592,3.9553,3.9462,3.944,3.9416,3.9378,3.9376,3.9326,3.9305,3.9269,3.9217,3.9147,3.9101,3.9035,3.8915,3.89,3.8861,3.8849,3.8839,3.8826,3.8759,3.874,3.8935,3.8935,3.8935,0,0,3.9675,3.9629,3.9641,3.9534,3.9489,3.944,3.9383,3.9395,3.9335,3.9341,3.9328,3.9313,3.9208,3.9178,3.9232,3.905,3.9099,3.9085,3.9073,3.9057,3.9045,3.9052,3.927,0,0,0,0,0,3.9724,3.9636,3.9647,3.9627,3.9521,3.9435,3.9421,3.9412,3.9448,3.9403,3.9374,3.9388,3.9205,3.9252,3.9229,3.9168,3.8984,3.8975,3.8967,3.8923,3.8907,3.8893,0,0,0,0,0,0,3.9716,3.9692,3.965,3.9598,3.9574,3.9439,3.9497,3.9492,3.9452,3.9457,3.9393,3.9386,3.9373,3.9263,3.9242,3.9184,3.9277,3.8981,3.8973,3.8967,3.8917,3.8904,3.8893,0,0,0,0,0,3.971,3.969,3.9524,3.9599,3.9578,3.9545,3.95,3.9496,3.9465,3.942,3.9413,3.9462,3.9371,3.9353,3.9251,3.9194,3.9291,3.9283,3.8976,3.897,3.8965,3.8911,0,0,0,0,0,0,3.9705,3.9684,3.952,3.9513,3.9632,3.9552,3.954,3.95,3.943,3.9422,3.9488,3.9492,3.9369,3.9356,3.9341,3.9198,3.9302,3.9295,3.929,3.8971,3.8967,3.8963,0,0,0,0,0,0,3.9695,3.9678,3.9516,3.9559,3.9557,3.9559,3.9548,3.9458,3.9428,3.9501,3.9503,3.949,3.9388,3.9357,3.9346,3.9206,3.9311,3.9304,3.9299,3.9295,3.8968,3.8964,0,0,0,0,0,0,3.9688,3.9673,3.956,3.9559,3.9557,3.9479,3.9479,3.9369,3.9471,3.9504,3.948,3.9483,3.9389,3.9378,3.9349,3.9213,3.9208,3.9311,3.9306,3.9302,3.93,0,0,0,0,0,0,0,3.9682,3.978,3.9561,3.9559,3.9557,3.9449,3.9447,3.9445,3.9472,3.9475,3.9479,3.9482,3.9353,3.9345,3.9337,3.922,0,0,3.9312,3.9308,0,0,0,0,0,0,0,0,3.9786,3.9781,3.9561,3.9559,3.9558,3.9449,3.9447,3.9446,3.9473,3.9475,3.9478,3.948,3.9351,3.9345,3.9338,0,0,0,0,0,0,0,0,0,0,0,0,0,0,0,3.9561,3.956,0,3.9449,3.9447,3.9446,3.9473,3.9475,3.9477,3.9479,3.9349,3.9344,3.9338,0,0,0,0,0,0,0,0,0,0,0,0,0,0,0,0,0,0,0,0,0,0,0,0,0,0,0,0,0,0,0,0,0,0,0,0,0,0,0,0,0,0,0,0,0,0,0,0,0,0,0,0,0,0,0,0,0,0,0,0,0,0,0,0,0,0,0,0,0]}]]]